Theta_e
351 357 359 361 377 369 356 355 351 356 356 353 352 353 355 349 352 356 337 337 344 346 346 351 352 352 349 350 350 348 352 350 351 354 354 353 352 349 353 351 352 353 352 352 353 353 351 353 349
358 360 360 370 375 354 358 351 353 354 354 352 352 352 353 349 343 338 339 342 347 347 345 348 348 352 351 352 350 352 352 350 351 353 351 352 348 346 349 352 352 352 353 352 353 353 353 353 353
360 359 371 370 356 361 358 352 353 352 351 352 353 350 351 349 338 338 341 345 348 348 350 349 346 349 349 347 347 348 352 351 349 354 352 354 354 353 346 347 350 349 352 352 350 352 353 350 352
359 363 366 372 353 351 353 352 351 350 350 350 350 354 348 340 338 337 343 345 347 345 345 346 347 345 344 344 346 349 349 354 354 351 352 353 354 353 352 351 352 352 350 351 351 349 347 342 343
356 359 365 352 351 349 350 349 349 350 351 351 349 353 347 340 342 342 345 346 349 347 346 348 345 345 344 343 346 348 349 349 354 353 352 351 350 352 352 351 351 351 351 351 351 351 346 344 345
363 359 364 352 352 349 349 349 349 349 350 349 350 348 346 340 341 346 348 345 347 346 350 348 348 346 346 345 345 351 354 347 348 354 353 353 351 350 350 350 351 352 351 351 349 349 349 344 344
361 361 353 353 357 350 351 347 348 348 349 351 347 352 341 336 334 343 345 346 344 349 346 345 348 349 345 348 351 348 349 351 353 354 352 351 348 351 351 353 352 352 350 350 349 349 349 349 343
360 358 352 356 351 354 350 348 346 347 349 347 348 354 346 339 338 342 341 341 346 346 347 348 347 350 348 349 353 353 350 348 351 349 347 343 343 340 348 346 353 353 352 351 350 347 345 343 344
353 364 356 353 351 351 348 350 346 344 346 347 347 348 342 336 340 338 338 339 346 347 347 347 347 349 350 350 350 348 346 347 344 341 335 348 352 353 350 351 341 341 344 344 345 346 343 338 340
359 354 352 350 352 350 350 349 347 349 346 347 349 345 337 336 337 339 337 341 344 346 345 350 348 347 347 348 348 351 349 349 352 351 352 352 351 352 351 346 346 346 344 343 338 341 336 340 347
353 351 350 349 350 350 351 348 346 346 344 346 346 342 338 335 338 341 339 340 346 345 345 346 348 348 345 347 347 346 346 347 348 353 353 352 353 353 348 347 348 346 344 345 345 340 342 348 349
354 352 351 350 350 351 352 347 347 345 342 343 341 339 341 342 340 340 340 342 343 344 344 346 346 348 347 346 347 346 346 345 348 350 353 354 352 353 351 347 347 349 347 346 345 341 342 348 348
354 353 352 351 350 351 350 348 348 348 340 341 340 339 340 341 340 337 340 343 344 343 345 344 347 347 348 349 346 346 347 346 347 349 351 351 352 355 353 349 348 352 351 346 349 347 349 349 347
349 353 352 352 352 353 353 351 349 348 340 341 341 341 342 342 340 342 343 344 344 344 343 344 346 348 348 347 349 350 351 350 350 351 352 354 353 356 353 350 349 350 352 352 351 351 351 345 347
347 355 355 354 354 354 354 356 351 347 342 342 343 343 344 344 342 345 344 344 344 343 342 344 344 344 347 349 350 352 351 352 351 352 353 357 356 356 357 354 350 354 355 353 353 350 352 349 350
350 353 356 355 354 352 359 363 353 347 345 344 344 346 346 345 344 344 344 345 345 344 343 343 343 344 348 349 352 352 351 353 353 353 354 355 356 357 357 356 356 355 355 355 354 351 350 354 353
349 348 353 353 353 352 360 360 354 347 346 347 346 345 346 346 344 344 346 347 346 345 344 345 346 346 350 352 352 351 352 352 352 352 354 358 357 357 357 354 356 355 353 354 355 352 355 355 354
350 351 347 353 353 352 352 357 355 348 348 347 348 348 347 345 345 345 347 346 346 344 344 349 348 349 351 353 354 351 352 351 352 352 355 357 357 357 357 356 356 356 355 354 353 352 352 352 352
341 343 348 351 352 353 353 357 355 351 345 346 347 347 348 347 344 346 346 346 346 345 344 347 348 349 352 352 351 350 349 350 350 351 354 357 357 359 357 357 357 356 354 356 355 354 354 353 352
338 341 348 350 349 352 352 356 356 352 348 345 346 347 347 346 345 346 347 347 347 348 348 348 348 350 352 353 352 350 349 349 350 353 355 356 357 358 359 355 354 357 354 356 356 354 352 352 352
337 342 346 351 351 350 353 356 358 354 351 347 346 346 346 347 346 346 347 347 348 348 350 350 352 352 353 353 353 354 353 351 351 352 353 357 358 358 358 356 358 357 357 356 354 355 355 353 353
342 339 342 351 353 361 351 366 359 357 356 351 347 347 346 347 347 347 347 346 346 347 348 349 352 354 354 356 352 354 353 350 350 350 357 356 358 358 358 360 355 356 356 357 357 357 356 357 354
342 341 344 350 353 348 349 361 361 357 358 356 351 348 347 347 347 348 346 346 345 346 347 348 352 354 356 356 356 354 355 349 351 353 357 357 361 359 356 360 358 353 359 357 359 359 358 356 354
340 345 346 348 351 356 341 359 364 357 356 356 354 351 348 347 346 346 344 345 346 346 347 347 351 356 357 358 358 358 354 353 350 354 356 356 357 358 359 358 360 354 355 357 357 357 358 358 359
344 345 361 355 349 346 338 349 351 348 349 352 354 353 351 348 347 346 346 345 345 345 345 347 350 356 359 359 358 359 357 357 354 355 354 354 353 352 363 360 358 356 355 357 355 356 359 359 357
341 342 354 343 338 345 345 343 353 347 348 350 351 351 350 350 347 347 347 346 345 345 346 346 348 355 358 359 359 359 359 357 355 353 351 352 353 353 361 360 360 359 358 357 357 354 353 355 356
337 338 337 335 340 347 347 354 349 348 348 349 349 352 351 351 350 349 348 347 347 347 347 346 347 354 356 357 359 359 360 359 354 352 354 352 354 354 357 356 362 360 363 359 358 356 354 354 355
335 335 336 335 348 341 344 352 355 354 355 352 350 351 350 351 351 350 349 348 348 347 346 346 348 351 355 355 358 359 360 361 359 355 354 352 353 356 362 362 361 361 361 362 361 358 356 357 352
333 333 334 335 340 339 349 350 353 357 357 356 353 352 352 353 352 351 351 349 348 347 346 347 348 349 352 355 355 357 359 360 360 357 356 357 355 357 361 360 361 362 362 362 363 360 360 362 360
333 333 333 333 337 338 339 355 353 354 354 355 356 356 355 352 351 350 349 349 350 350 348 348 347 349 352 354 355 357 359 359 359 359 356 356 358 358 359 363 361 359 361 361 363 363 361 363 361
Wind_Speed
7 7 9 6 5 4 10 12 12 10 15 16 13 9 13 10 6 6 24 17 7 7 9 8 8 9 10 11 10 9 10 11 12 11 13 13 13 15 12 14 13 14 14 14 16 16 16 15 14
9 6 8 6 5 9 10 13 13 14 17 14 15 14 9 6 11 17 18 15 9 11 13 11 9 9 10 11 10 9 9 12 12 13 12 14 13 14 15 12 12 12 14 14 13 14 14 14 14
4 6 5 5 9 6 7 12 12 10 7 8 7 14 5 8 14 19 15 13 6 9 14 12 10 9 10 9 11 11 12 11 12 12 11 14 13 14 15 13 12 11 13 12 11 12 13 14 14
5 7 5 3 12 15 15 12 10 10 7 3 10 12 9 8 16 16 20 16 11 12 12 12 9 10 10 10 11 11 12 10 10 10 10 13 14 14 14 13 11 11 10 12 11 10 10 10 10
10 4 4 10 14 14 11 8 5 7 7 5 5 9 13 16 18 20 18 13 8 15 13 13 10 11 11 11 11 11 12 11 10 9 9 10 11 12 12 12 11 10 9 8 9 9 8 8 8
4 4 1 8 12 10 11 9 4 11 7 7 16 18 15 21 22 18 16 13 9 14 16 13 10 11 10 11 11 10 10 9 9 8 7 7 9 9 10 11 10 9 9 9 8 7 7 8 8
9 6 8 13 9 9 10 7 9 10 8 14 15 12 17 23 23 19 16 13 6 11 11 13 11 11 12 10 9 8 9 7 5 6 5 3 6 7 8 8 9 8 7 6 7 6 5 6 7
5 6 10 9 5 10 9 10 8 10 11 7 19 8 20 26 23 14 16 11 7 9 6 6 11 13 14 9 9 7 7 6 4 4 4 4 5 6 6 8 8 7 6 4 4 4 3 3 5
6 5 7 4 7 12 7 10 9 11 11 9 6 16 28 28 22 15 13 13 10 9 11 6 5 13 9 10 8 5 5 6 4 2 2 2 5 6 9 9 2 4 4 4 4 5 2 3 4
11 3 12 4 11 10 5 13 8 8 8 10 13 25 30 26 18 17 19 22 17 14 12 8 5 7 9 11 8 8 6 6 6 3 3 5 2 2 9 3 6 5 7 9 9 5 6 5 10
4 10 7 5 10 11 8 9 5 7 12 12 19 24 25 25 18 16 18 15 18 15 14 10 4 2 9 8 7 7 6 6 6 4 4 4 4 4 6 4 5 9 9 13 13 11 7 6 2
5 6 5 9 8 9 11 7 8 9 16 16 22 20 21 19 17 18 12 12 13 15 12 11 8 7 6 7 6 4 4 4 5 5 4 4 5 4 2 4 7 14 9 7 12 10 9 6 3
5 7 4 9 8 9 11 8 7 9 19 19 23 21 20 18 22 21 18 18 12 12 12 11 11 10 5 5 5 4 5 5 4 5 6 4 5 0 2 3 4 9 10 10 8 12 10 10 8
7 5 7 9 9 8 12 11 12 12 20 19 21 20 19 18 16 13 14 12 10 10 11 11 12 10 9 8 6 4 5 3 3 5 1 3 5 3 5 3 3 8 11 12 10 13 12 10 10
11 8 5 1 4 6 14 10 16 15 20 19 18 17 17 18 25 22 14 10 10 11 11 12 11 12 10 9 7 6 6 5 5 2 3 2 5 3 5 2 3 2 7 10 9 10 9 11 9
14 10 9 6 6 5 23 11 15 14 18 19 17 15 13 11 13 12 12 13 15 12 13 13 13 12 11 10 9 10 6 5 5 3 6 2 2 4 4 3 3 2 5 9 10 10 11 8 11
12 8 8 9 12 5 12 12 14 12 17 18 16 14 13 13 13 13 12 10 13 13 15 14 12 10 14 9 8 7 5 6 3 2 4 5 0 3 5 3 4 3 5 9 11 11 10 11 11
17 11 7 5 6 10 3 14 13 12 16 16 17 16 13 12 12 14 13 12 12 14 14 14 12 10 8 10 9 7 8 6 5 6 0 3 2 1 4 6 4 2 5 7 9 10 9 11 13
2 3 3 9 9 8 6 13 13 13 13 16 16 16 16 15 16 16 14 14 13 14 15 15 15 14 13 11 10 10 8 9 7 8 1 2 1 2 3 4 3 3 6 6 7 6 7 9 6
4 2 7 8 10 7 7 12 15 14 13 14 15 14 15 16 15 16 18 17 17 16 15 14 15 15 14 12 9 7 5 7 7 6 2 3 2 1 2 2 4 4 7 5 6 8 7 5 5
11 10 7 4 11 6 9 7 14 16 13 13 15 15 15 16 17 17 17 17 16 17 17 16 15 14 14 14 9 7 7 8 6 8 9 9 4 3 1 1 4 3 5 5 6 5 2 4 5
7 4 3 10 14 8 24 9 18 19 17 15 16 15 16 15 15 16 21 19 20 17 16 17 16 16 15 14 11 9 9 9 9 9 7 6 5 4 2 3 2 3 5 6 5 5 2 3 7
8 1 9 14 16 5 14 8 17 17 17 16 16 18 16 13 14 16 19 22 20 21 20 20 18 17 16 15 16 12 12 9 7 4 3 3 6 6 5 4 4 4 6 5 3 3 4 4 5
5 11 11 12 5 11 7 19 13 11 12 19 17 17 17 17 16 14 16 13 14 16 17 17 18 16 16 16 15 15 10 9 7 7 1 9 7 10 8 5 5 5 4 5 5 5 5 3 5
13 15 6 3 8 4 5 7 13 7 5 4 20 20 18 17 15 15 14 15 14 11 11 12 14 15 16 17 17 16 14 11 9 8 10 4 7 8 14 8 6 7 7 6 5 5 4 5 5
14 6 4 5 2 9 3 9 9 8 5 1 5 19 18 16 15 15 15 15 12 13 12 13 16 16 17 17 18 17 16 15 13 12 13 10 2 10 11 5 6 5 6 7 7 8 8 9 8
13 7 8 7 13 13 8 13 13 9 6 0 2 6 11 13 13 14 15 18 14 14 14 14 15 15 15 16 17 18 17 17 14 12 11 12 7 8 6 7 8 7 7 8 8 8 6 6 8
15 14 10 6 5 3 3 13 11 10 9 6 5 8 8 9 9 11 13 15 14 16 17 17 18 17 15 15 16 17 17 17 16 14 14 11 9 9 4 6 10 10 10 9 11 10 11 9 10
8 13 12 2 13 9 6 3 8 9 12 10 9 8 5 6 9 10 9 13 17 17 16 18 18 16 18 17 17 17 18 17 17 17 17 15 13 12 12 11 12 13 12 12 13 14 8 10 11
10 13 14 7 3 13 4 13 12 9 11 11 10 9 6 4 1 1 5 7 5 10 17 16 14 17 17 17 18 19 18 18 18 18 18 17 17 17 17 16 16 16 15 15 16 16 15 16 16
Wind_Direction
203 228 250 273 240 174 68 101 94 84 85 74 63 84 93 39 35 86 147 174 203 153 132 120 133 124 124 126 118 113 110 114 111 103 105 102 101 104 102 97 103 104 107 106 109 109 110 105 101
251 266 259 269 261 80 77 70 64 64 87 109 104 111 94 84 86 114 146 194 199 161 137 132 136 133 132 128 126 120 122 110 107 101 96 96 95 104 104 102 105 106 102 109 107 110 106 104 101
255 269 263 281 63 38 88 77 81 94 123 102 95 95 71 100 120 144 145 155 137 112 98 110 124 139 136 135 129 132 127 121 107 103 96 89 93 100 102 99 96 99 101 99 100 107 111 110 105
272 219 231 318 72 55 59 80 107 106 78 40 102 100 99 131 140 138 143 146 170 134 120 114 115 125 139 140 142 136 123 118 115 102 94 95 94 97 97 96 89 84 87 101 102 109 109 111 101
251 262 251 101 72 67 69 59 29 75 70 124 35 94 113 125 131 134 136 145 154 134 121 118 124 116 131 141 137 135 121 118 112 107 100 96 98 101 102 99 98 95 95 94 99 101 101 100 98
237 39 346 100 91 99 65 50 48 61 78 93 95 114 114 128 135 141 139 148 188 124 127 121 127 126 130 136 140 138 129 127 117 108 106 102 101 108 106 105 104 99 92 92 91 91 87 81 86
270 193 83 69 81 60 53 51 50 80 109 109 130 124 124 144 143 142 148 152 159 125 131 133 135 141 142 144 147 144 140 134 141 132 123 128 116 116 116 116 106 102 100 96 93 86 82 85 86
287 312 98 140 78 79 84 78 65 76 90 102 138 141 155 148 148 137 135 150 166 132 140 114 145 146 151 144 149 155 164 155 164 155 155 182 143 133 131 120 108 90 92 104 96 90 88 96 105
241 201 126 151 136 98 133 88 71 96 138 151 148 145 144 146 155 139 137 163 151 187 152 161 152 153 147 142 156 146 164 170 179 174 150 211 208 177 149 137 168 248 184 185 174 157 153 167 147
250 112 59 103 80 111 88 95 142 144 110 109 130 128 140 145 157 154 176 163 177 178 152 164 199 170 151 146 142 183 186 188 202 182 223 299 207 157 124 270 251 208 234 245 223 203 177 208 204
287 90 110 116 93 92 113 133 170 57 115 119 132 139 147 150 172 175 176 178 178 169 144 173 232 309 159 151 177 172 184 179 195 201 243 265 302 216 53 358 256 222 265 243 227 210 214 242 266
132 87 66 119 143 140 93 129 91 72 97 121 134 143 143 165 162 188 170 205 172 151 161 166 177 212 184 164 191 167 201 218 205 175 216 243 264 223 36 342 270 231 245 210 203 209 211 227 234
116 122 143 121 154 112 137 102 111 113 116 131 139 157 163 173 174 197 197 195 180 156 166 174 186 191 196 193 187 213 226 204 231 217 202 279 269 219 329 319 251 221 213 208 187 194 208 197 201
86 155 136 176 157 148 126 132 132 144 131 140 148 164 171 181 183 198 206 176 183 160 164 178 202 180 193 195 200 215 218 230 236 248 96 265 294 20 351 314 269 217 210 197 188 197 200 186 198
141 142 134 174 153 183 127 192 105 146 144 148 161 172 171 177 183 199 194 184 186 172 178 187 204 186 194 201 202 210 234 251 241 327 286 283 306 11 337 330 326 198 185 174 171 167 196 182 181
133 170 170 159 221 220 115 140 125 153 157 161 168 176 177 199 192 188 186 200 168 184 186 181 206 186 183 192 194 220 222 246 239 278 249 83 352 348 318 346 2 125 147 166 169 168 173 180 176
149 179 125 167 230 261 143 125 127 164 172 170 178 176 188 187 199 191 196 195 189 186 174 192 194 199 168 185 204 225 228 233 248 289 305 97 39 19 324 80 34 50 105 148 160 161 162 174 177
126 259 144 123 172 242 284 93 146 174 186 182 181 178 198 210 207 191 205 183 185 175 188 188 194 199 195 179 215 240 232 239 249 267 88 46 111 42 327 69 26 36 99 135 157 174 172 189 186
14 347 153 125 177 205 172 141 165 174 190 183 187 190 187 207 194 195 200 176 185 176 189 193 199 205 202 207 209 213 229 219 241 255 214 239 215 90 331 107 115 62 92 114 147 160 167 192 177
194 197 134 125 172 237 182 163 168 181 187 181 196 194 189 190 189 206 190 197 189 183 193 200 212 211 213 218 221 263 242 242 236 255 124 212 255 144 154 0 112 97 103 131 172 194 178 174 173
97 121 174 192 186 197 165 191 177 181 183 181 194 193 198 185 183 187 198 205 202 189 198 204 210 215 216 236 216 219 245 257 246 231 221 188 184 200 101 82 46 130 142 140 156 193 286 197 167
63 70 163 180 201 197 130 230 193 178 183 189 196 201 196 190 192 183 188 200 202 202 206 207 209 215 221 225 236 228 258 242 212 233 107 133 176 210 168 176 151 202 170 154 185 190 223 261 230
60 8 188 190 226 103 193 3 154 173 182 190 200 195 207 212 201 185 206 196 208 192 199 203 205 214 222 216 225 217 232 233 237 246 78 223 157 196 192 175 182 201 217 155 208 165 207 215 293
292 232 207 197 125 323 28 101 273 161 190 187 199 205 204 200 213 210 209 220 208 203 200 198 185 202 214 217 221 227 237 249 241 221 243 253 175 169 180 186 199 194 200 176 199 203 209 254 311
237 246 320 87 256 140 80 121 69 78 113 256 190 199 202 195 202 197 210 210 211 218 207 201 183 198 206 210 214 215 217 217 233 238 230 173 231 246 161 166 194 191 202 197 212 201 202 213 236
269 297 232 311 7 114 2 68 74 84 84 50 293 186 194 203 196 202 192 205 205 209 206 202 185 198 201 207 211 210 209 214 221 219 238 247 166 253 134 152 199 203 198 206 210 217 221 206 224
286 257 313 299 341 85 251 98 97 91 81 151 148 88 189 198 222 195 200 200 197 204 213 202 197 194 204 206 208 207 209 215 218 229 218 237 251 259 178 197 203 210 211 213 214 238 222 247 226
275 322 286 249 208 332 21 40 100 109 99 92 135 162 181 202 217 232 205 213 191 207 204 206 198 204 205 209 205 210 213 217 218 216 220 229 236 229 243 193 207 207 212 214 227 239 221 221 239
195 247 248 74 274 265 95 134 101 118 114 113 133 138 145 154 199 214 214 220 217 205 214 204 206 213 205 206 203 204 209 213 214 215 216 217 218 219 222 223 220 219 220 219 223 243 253 215 231
307 292 285 227 280 307 73 106 102 118 120 114 106 114 112 119 316 254 207 198 240 265 213 222 232 205 213 209 203 203 208 212 214 217 216 215 217 218 220 222 225 229 231 228 226 231 236 224 231